Location: Unspecified
(0.0000°N, 0.0000°E)
Time: 10:55:34
(UTC+00:00)

CZ-3C DEB - Visible Passes

Search period start: 07 February 2026 00:00
Search period end: 17 February 2026 00:00
Orbit: 744 x 35411 km, 20.5° (Epoch: 6 February)

Date Brightness Start Highest point End Pass type
(mag) Time Alt. Az. Time Alt. Az. Time Alt. Az.
7 Feb ? 10:39:36 10° WSW 17:46:35 81° SSW 20:29:32 37° NE visible
9 Feb ? 04:42:21 25° N 04:43:47 31° NNE 04:49:25 10° E visible
9 Feb ? 16:19:28 10° WSW 17:56:03 28° WSW 21:21:37 10° W visible
10 Feb ? 12:51:41 10° WSW 15:38:20 67° SSW 22:30:56 53° NNW visible
11 Feb ? 09:46:17 10° WSW 18:09:22 87° E 19:39:58 22° ENE visible
13 Feb ? 03:52:04 19° NE 03:52:04 19° NE 03:54:21 10° ENE visible
13 Feb ? 15:14:59 10° WSW 17:05:43 38° WSW 00:32:20 17° WNW visible
14 Feb ? 11:56:47 10° WSW 15:42:35 72° SSW 21:41:22 52° NNE visible
15 Feb ? 08:53:15 10° W 17:08:48 75° E 18:49:28 10° ENE visible
